Location: Earls Croome
(52.0667°N, 2.2000°W)
Time: 12:55:22
(UTC+00:00)

Cosmos 2151 - Pass Details

Date: 17 November 2019
Orbit: 581 x 602 km, 82.5° (Epoch: 09 December)

Event Time Altitude Azimuth Distance (km) Brightness Sun altitude
Rises 06:40:57 0° 232° (SW) 2,847 6.1 -7.9°
Reaches altitude 10° 06:43:44 10° 251° (WSW) 1,949 5.2 -7.5°
Maximum altitude 06:46:47 19° 296° (WNW) 1,472 4.4 -7.0°
Drops below altitude 10° 06:49:51 10° 342° (NNW) 1,957 5.2 -6.6°
Sets 06:52:40 0° 1° (N) 2,863 6.2 -6.2°
